Regional Weather Roundup
Issued by NWS Jackson, KY

Home | Current Version | Previous Version | Graphics & Text | Print | Product List | Glossary On
Versions: 1 2 3 4 5 6 7 8 9 10 11 12 13 14 15 16 17 18 19 20 21 22 23 24 25 26 27 28 29 30 31 32 33 34 35 36 37 38 39 40 41 42 43 44 45 46 47 48 49 50
000
ASUS43 KJKL 210319
RWRJKL

EAST KENTUCKY HOURLY WEATHER ROUNDUP
NATIONAL WEATHER SERVICE JACKSON KY
1100 PM EDT SUN APR 20 2014

NOTE: "FAIR" INDICATES FEW OR NO CLOUDS BELOW 12,000 FEET WITH
NO SIGNIFICANT WEATHER AND/OR OBSTRUCTIONS TO VISIBILITY.

* THESE REPORTS ARE NOT UNDER NWS QUALITY CONTROL AND MAY NOT
  REPORT WEATHER SUCH AS PRECIPITATION AND FOG.

KYZ079-080-083-085-087-088-110-112-115-119-120-210400
...EASTERN KENTUCKY...

CITY           SKY/WX    TMP DP  RH WIND       PRES   REMARKS
JACKSON        CLOUDY    68  24  19 CALM      30.14S
LONDON         MOCLDY    62  43  49 CALM      30.14R
SOMERSET*      PTCLDY    57  43  58 CALM      30.15R
MONTICELLO*    PTCLDY    51  45  80 CALM      30.15R
MIDDLESBORO*   PTCLDY    54  44  67 CALM      30.16R
HARLAN APT*    PTCLDY    59  34  38 CALM      30.16S
BLACK MTN*       N/A     55  25  30 S2          N/A
PIKEVILLE APT* CLEAR     66  27  22 SE5       30.14S
BIG SANDY*     PTCLDY    61  34  36 E8        30.14S
ASHLAND*       CLEAR     54  37  54 CALM      30.10F
MOREHEAD APT*  CLEAR     66  39  37 MISG      30.16S
$$

KYZ035-036-041-042-044-050-067-078-099-210400
...CENTRAL KENTUCKY...

CITY           SKY/WX    TMP DP  RH WIND       PRES   REMARKS
MT STERLING*   MOCLDY    55  46  71 CALM      30.15S
FLEMING/MASON* CLEAR     63  43  48 CALM      30.15S
DANVILLE*      MOCLDY    55  45  67 CALM      30.15S
LEXINGTON      PTCLDY    61  45  55 CALM      30.13F
FRANKFORT      PTCLDY    55  44  66 CALM      30.12S
$$

KYZ091>093-OHZ055-061-077-WVZ005-015-034-035-042-210400
...SOUTHERN OHIO/WEST VIRGINIA...

CITY           SKY/WX    TMP DP  RH WIND       PRES   REMARKS
COVINGTON      PTCLDY    60  41  49 CALM      30.13R
COLUMBUS       PTCLDY    61  42  49 CALM      30.12F
DAYTON         PTCLDY    61  38  42 SE3       30.13F
WILMINGTON     CLOUDY    58  42  55 CALM      30.13F
HUNTINGTON     MOCLDY    62  29  28 CALM      30.12F
CHARLESTON     CLEAR     58  34  40 CALM      30.14S
PINEVILLE*     CLEAR     53  37  55 MISG      30.24S
BECKLEY        CLEAR     56  26  31 SE9       30.22S
BLUEFIELD      CLEAR     56  24  29 SE9G18    30.24F
$$

VAZ002-007-008-TNZ017-027-036-066-071-210400
...SOUTHWEST VIRGINIA/EAST TENNESSEE...

CITY           SKY/WX    TMP DP  RH WIND       PRES   REMARKS
WISE*          PTCLDY    61  21  21 S5        30.20F
ABINGDON*      CLEAR     59  28  31 E10       30.20S
BRISTOL        PTCLDY    57  29  34 CALM      30.18R
OAK RIDGE      PTCLDY    58  46  64 CALM      30.15R
CROSSVILLE     MOCLDY    60  39  45 CALM      30.18R
NASHVILLE      PTCLDY    64  44  48 CALM      30.12S
$$

...KEY TO REMARKS...
VSB - VISIBILITY IN MILES
WCI - WIND CHILL INDEX
HX  - HEAT INDEX

$$



USA.gov is the U.S. government's official web portal to all federal, state and local government web resources and services.